Year,Month,Day,Hour,Minute,Value (Times are PST for temperature in C)
2012,04,05,00,00,1.60
2012,04,05,00,01,1.50
2012,04,05,00,02,1.50
2012,04,05,00,03,1.50
2012,04,05,00,04,1.50
2012,04,05,00,05,1.50
2012,04,05,00,06,1.50
2012,04,05,00,07,1.40
2012,04,05,00,08,1.40
2012,04,05,00,09,1.40
2012,04,05,00,10,1.40
2012,04,05,00,11,1.40
2012,04,05,00,12,1.40
2012,04,05,00,13,1.40
2012,04,05,00,14,1.40
2012,04,05,00,15,1.30
2012,04,05,00,16,1.30
2012,04,05,00,17,1.30
2012,04,05,00,18,1.30
2012,04,05,00,19,1.30
2012,04,05,00,20,1.30
2012,04,05,00,21,1.30
2012,04,05,00,22,1.30
2012,04,05,00,23,1.30
2012,04,05,00,24,1.30
2012,04,05,00,25,1.30
2012,04,05,00,26,1.30
2012,04,05,00,27,1.30
2012,04,05,00,28,1.30
2012,04,05,00,29,1.30
2012,04,05,00,30,1.30
2012,04,05,00,31,1.30
2012,04,05,00,32,1.20
2012,04,05,00,33,1.20
2012,04,05,00,34,1.20
2012,04,05,00,35,1.20
2012,04,05,00,36,1.20
2012,04,05,00,37,1.20
2012,04,05,00,38,1.10
2012,04,05,00,39,1.10
2012,04,05,00,40,1.10
2012,04,05,00,41,1.10
2012,04,05,00,42,1.10
2012,04,05,00,43,1.10
2012,04,05,00,44,1.10
2012,04,05,00,45,1.10
2012,04,05,00,46,1.00
2012,04,05,00,47,1.00
2012,04,05,00,48,1.00
2012,04,05,00,49,1.00
2012,04,05,00,50,0.90
2012,04,05,00,51,0.90
2012,04,05,00,52,0.90
2012,04,05,00,53,0.90
2012,04,05,00,54,0.90
2012,04,05,00,55,0.90
2012,04,05,00,56,0.90
2012,04,05,00,57,0.90
2012,04,05,00,58,0.90
2012,04,05,00,59,0.90
2012,04,05,01,00,0.90
2012,04,05,01,01,0.90
2012,04,05,01,02,0.90
2012,04,05,01,03,0.90
2012,04,05,01,04,0.80
2012,04,05,01,05,0.80
2012,04,05,01,06,0.80
2012,04,05,01,07,0.80
2012,04,05,01,08,0.80
2012,04,05,01,09,0.80
2012,04,05,01,10,0.70
2012,04,05,01,11,0.70
2012,04,05,01,12,0.70
2012,04,05,01,13,0.70
2012,04,05,01,14,0.70
2012,04,05,01,15,0.70
2012,04,05,01,16,0.70
2012,04,05,01,17,0.70
2012,04,05,01,18,0.70
2012,04,05,01,19,0.70
2012,04,05,01,20,0.70
2012,04,05,01,21,0.70
2012,04,05,01,22,0.70
2012,04,05,01,23,0.70
2012,04,05,01,24,0.70
2012,04,05,01,25,0.70
2012,04,05,01,26,0.70
2012,04,05,01,27,0.70
2012,04,05,01,28,0.60
2012,04,05,01,29,0.60
2012,04,05,01,30,0.60
2012,04,05,01,31,0.60
2012,04,05,01,32,0.60
2012,04,05,01,33,0.60
2012,04,05,01,34,0.60
2012,04,05,01,35,0.60
2012,04,05,01,36,0.60
2012,04,05,01,37,0.60
2012,04,05,01,38,0.60
2012,04,05,01,39,0.60
2012,04,05,01,40,0.60
2012,04,05,01,41,0.60
2012,04,05,01,42,0.50
2012,04,05,01,43,0.50
2012,04,05,01,44,0.50
2012,04,05,01,45,0.50
2012,04,05,01,46,0.40
2012,04,05,01,47,0.40
2012,04,05,01,48,0.40
2012,04,05,01,49,0.40
2012,04,05,01,50,0.40
2012,04,05,01,51,0.40
2012,04,05,01,52,0.40
2012,04,05,01,53,0.40
2012,04,05,01,54,0.40
2012,04,05,01,55,0.40
2012,04,05,01,56,0.40
2012,04,05,01,57,0.40
2012,04,05,01,58,0.40
2012,04,05,01,59,0.50
2012,04,05,02,00,0.50
2012,04,05,02,01,0.50
2012,04,05,02,02,0.50
2012,04,05,02,03,0.50
2012,04,05,02,04,0.50
2012,04,05,02,05,0.50
2012,04,05,02,06,0.50
2012,04,05,02,07,0.40
2012,04,05,02,08,0.50
2012,04,05,02,09,0.40
2012,04,05,02,10,0.40
2012,04,05,02,11,0.40
2012,04,05,02,12,0.40
2012,04,05,02,13,0.40
2012,04,05,02,14,0.40
2012,04,05,02,15,0.30
2012,04,05,02,16,0.30
2012,04,05,02,17,0.30
2012,04,05,02,18,0.30
2012,04,05,02,19,0.30
2012,04,05,02,20,0.30
2012,04,05,02,21,0.30
2012,04,05,02,22,0.40
2012,04,05,02,23,0.40
2012,04,05,02,24,0.40
2012,04,05,02,25,0.40
2012,04,05,02,26,0.40
2012,04,05,02,27,0.40
2012,04,05,02,28,0.40
2012,04,05,02,29,0.40
2012,04,05,02,30,0.40
2012,04,05,02,31,0.40
2012,04,05,02,32,0.50
2012,04,05,02,33,0.50
2012,04,05,02,34,0.50
2012,04,05,02,35,0.50
2012,04,05,02,36,0.50
2012,04,05,02,37,0.50
2012,04,05,02,38,0.50
2012,04,05,02,39,0.50
2012,04,05,02,40,0.50
2012,04,05,02,41,0.50
2012,04,05,02,42,0.60
2012,04,05,02,43,0.60
2012,04,05,02,44,0.60
2012,04,05,02,45,0.60
2012,04,05,02,46,0.60
2012,04,05,02,47,0.70
2012,04,05,02,48,0.70
2012,04,05,02,49,0.70
2012,04,05,02,50,0.70
2012,04,05,02,51,0.80
2012,04,05,02,52,0.80
2012,04,05,02,53,0.80
2012,04,05,02,54,0.80
2012,04,05,02,55,0.80
2012,04,05,02,56,0.80
2012,04,05,02,57,0.90
2012,04,05,02,58,0.90
2012,04,05,02,59,0.90
2012,04,05,03,00,0.90
2012,04,05,03,01,0.90
2012,04,05,03,02,0.90
2012,04,05,03,03,0.90
2012,04,05,03,04,1.00
2012,04,05,03,05,1.00
2012,04,05,03,06,1.00
2012,04,05,03,07,1.00
2012,04,05,03,08,1.00
2012,04,05,03,09,1.00
2012,04,05,03,10,1.00
2012,04,05,03,11,1.00
2012,04,05,03,12,1.00
2012,04,05,03,13,1.00
2012,04,05,03,14,1.00
2012,04,05,03,15,1.10
2012,04,05,03,16,1.10
2012,04,05,03,17,1.10
2012,04,05,03,18,1.10
2012,04,05,03,19,1.10
2012,04,05,03,20,1.10
2012,04,05,03,21,1.10
2012,04,05,03,22,1.10
2012,04,05,03,23,1.20
2012,04,05,03,24,1.20
2012,04,05,03,25,1.20
2012,04,05,03,26,1.20
2012,04,05,03,27,1.20
2012,04,05,03,28,1.20
2012,04,05,03,29,1.30
2012,04,05,03,30,1.30
2012,04,05,03,31,1.30
2012,04,05,03,32,1.30
2012,04,05,03,33,1.30
2012,04,05,03,34,1.30
2012,04,05,03,35,1.30
2012,04,05,03,36,1.30
2012,04,05,03,37,1.30
2012,04,05,03,38,1.30
2012,04,05,03,39,1.30
2012,04,05,03,40,1.30
2012,04,05,03,41,1.30
2012,04,05,03,42,1.30
2012,04,05,03,43,1.30
2012,04,05,03,44,1.30
2012,04,05,03,45,1.30
2012,04,05,03,46,1.30
2012,04,05,03,47,1.30
2012,04,05,03,48,1.30
2012,04,05,03,49,1.30
2012,04,05,03,50,1.30
2012,04,05,03,51,1.30
2012,04,05,03,52,1.30
2012,04,05,03,53,1.40
2012,04,05,03,54,1.40
2012,04,05,03,55,1.40
2012,04,05,03,56,1.40
2012,04,05,03,57,1.40
2012,04,05,03,58,1.40
2012,04,05,03,59,1.40
2012,04,05,04,00,1.40
2012,04,05,04,01,1.30
2012,04,05,04,02,1.30
2012,04,05,04,03,1.40
2012,04,05,04,04,1.30
2012,04,05,04,05,1.30
2012,04,05,04,06,1.30
2012,04,05,04,07,1.30
2012,04,05,04,08,1.40
2012,04,05,04,09,1.40
2012,04,05,04,10,1.40
2012,04,05,04,11,1.40
2012,04,05,04,12,1.40
2012,04,05,04,13,1.40
2012,04,05,04,14,1.40
2012,04,05,04,15,1.40
2012,04,05,04,16,1.40
2012,04,05,04,17,1.40
2012,04,05,04,18,1.40
2012,04,05,04,19,1.40
2012,04,05,04,20,1.40
2012,04,05,04,21,1.40
2012,04,05,04,22,1.40
2012,04,05,04,23,1.40
2012,04,05,04,24,1.40
2012,04,05,04,25,1.40
2012,04,05,04,26,1.40
2012,04,05,04,27,1.50
2012,04,05,04,28,1.50
2012,04,05,04,29,1.50
2012,04,05,04,30,1.50
2012,04,05,04,31,1.50
2012,04,05,04,32,1.60
2012,04,05,04,33,1.60
2012,04,05,04,34,1.60
2012,04,05,04,35,1.60
2012,04,05,04,36,1.60
2012,04,05,04,37,1.60
2012,04,05,04,38,1.60
2012,04,05,04,39,1.60
2012,04,05,04,40,1.60
2012,04,05,04,41,1.60
2012,04,05,04,42,1.60
2012,04,05,04,43,1.60
2012,04,05,04,44,1.60
2012,04,05,04,45,1.60
2012,04,05,04,46,1.60
2012,04,05,04,47,1.60
2012,04,05,04,48,1.60
2012,04,05,04,49,1.60
2012,04,05,04,50,1.70
2012,04,05,04,51,1.70
2012,04,05,04,52,1.70
2012,04,05,04,53,1.70
2012,04,05,04,54,1.70
2012,04,05,04,55,1.70
2012,04,05,04,56,1.70
2012,04,05,04,57,1.70
2012,04,05,04,58,1.70
2012,04,05,04,59,1.70
2012,04,05,05,00,1.70
2012,04,05,05,01,1.70
2012,04,05,05,02,1.70
2012,04,05,05,03,1.70
2012,04,05,05,04,1.70
2012,04,05,05,05,1.70
2012,04,05,05,06,1.70
2012,04,05,05,07,1.70
2012,04,05,05,08,1.80
2012,04,05,05,09,1.80
2012,04,05,05,10,1.80
2012,04,05,05,11,1.80
2012,04,05,05,12,1.80
2012,04,05,05,13,1.80
2012,04,05,05,14,1.80
2012,04,05,05,15,1.90
2012,04,05,05,16,1.90
2012,04,05,05,17,1.90
2012,04,05,05,18,1.90
2012,04,05,05,19,1.90
2012,04,05,05,20,1.90
2012,04,05,05,21,1.90
2012,04,05,05,22,1.90
2012,04,05,05,23,1.90
2012,04,05,05,24,2.00
2012,04,05,05,25,2.00
2012,04,05,05,26,2.00
2012,04,05,05,27,2.00
2012,04,05,05,28,2.00
2012,04,05,05,29,2.00
2012,04,05,05,30,2.00
2012,04,05,05,31,2.00
2012,04,05,05,32,2.00
2012,04,05,05,33,2.00
2012,04,05,05,34,2.00
2012,04,05,05,35,2.00
2012,04,05,05,36,2.00
2012,04,05,05,37,2.00
2012,04,05,05,38,2.00
2012,04,05,05,39,2.00
2012,04,05,05,40,2.10
2012,04,05,05,41,2.10
2012,04,05,05,42,2.10
2012,04,05,05,43,2.10
2012,04,05,05,44,2.10
2012,04,05,05,45,2.10
2012,04,05,05,46,2.10
2012,04,05,05,47,2.10
2012,04,05,05,48,2.10
2012,04,05,05,49,2.10
2012,04,05,05,50,2.10
2012,04,05,05,51,2.10
2012,04,05,05,52,2.10
2012,04,05,05,53,2.10
2012,04,05,05,54,2.10
2012,04,05,05,55,2.10
2012,04,05,05,56,2.10
2012,04,05,05,57,2.10
2012,04,05,05,58,2.10
2012,04,05,05,59,2.10
2012,04,05,06,00,2.10
2012,04,05,06,01,2.10
2012,04,05,06,02,2.10
2012,04,05,06,03,2.10
2012,04,05,06,04,2.10
2012,04,05,06,05,2.10
2012,04,05,06,06,2.10
2012,04,05,06,07,2.10
2012,04,05,06,08,2.00
2012,04,05,06,09,2.00
2012,04,05,06,10,2.00
2012,04,05,06,11,2.00
2012,04,05,06,12,1.90
2012,04,05,06,13,1.90
2012,04,05,06,14,1.90
2012,04,05,06,15,1.90
2012,04,05,06,16,1.90
2012,04,05,06,17,1.90
2012,04,05,06,18,1.90
2012,04,05,06,19,1.90
2012,04,05,06,20,1.90
2012,04,05,06,21,1.80
2012,04,05,06,22,1.80
2012,04,05,06,23,1.80
2012,04,05,06,24,1.80
2012,04,05,06,25,1.80
2012,04,05,06,26,1.80
2012,04,05,06,27,1.80
2012,04,05,06,28,1.80
2012,04,05,06,29,1.80
2012,04,05,06,30,1.80
2012,04,05,06,31,1.80
2012,04,05,06,32,1.80
2012,04,05,06,33,1.80
2012,04,05,06,34,1.80
2012,04,05,06,35,1.80
2012,04,05,06,36,1.80
2012,04,05,06,37,1.80
2012,04,05,06,38,1.80
2012,04,05,06,39,1.80
2012,04,05,06,40,1.80
2012,04,05,06,41,1.80
2012,04,05,06,42,1.80
2012,04,05,06,43,1.90
2012,04,05,06,44,1.90
2012,04,05,06,45,1.90
2012,04,05,06,46,1.90
2012,04,05,06,47,1.90
2012,04,05,06,48,1.90
2012,04,05,06,49,1.90
2012,04,05,06,50,2.00
2012,04,05,06,51,2.00
2012,04,05,06,52,2.00
2012,04,05,06,53,2.00
2012,04,05,06,54,2.00
2012,04,05,06,55,2.10
2012,04,05,06,56,2.10
2012,04,05,06,57,2.10
2012,04,05,06,58,2.10
2012,04,05,06,59,2.10
2012,04,05,07,00,2.10
2012,04,05,07,01,2.10
2012,04,05,07,02,2.10
2012,04,05,07,03,2.10
2012,04,05,07,04,2.20
2012,04,05,07,05,2.20
2012,04,05,07,06,2.20
2012,04,05,07,07,2.20
2012,04,05,07,08,2.20
2012,04,05,07,09,2.20
2012,04,05,07,10,2.20
2012,04,05,07,11,2.20
2012,04,05,07,12,2.20
2012,04,05,07,13,2.20
2012,04,05,07,14,2.20
2012,04,05,07,15,2.20
2012,04,05,07,16,2.20
2012,04,05,07,17,2.20
2012,04,05,07,18,2.20
2012,04,05,07,19,2.30
2012,04,05,07,20,2.30
2012,04,05,07,21,2.30
2012,04,05,07,22,2.30
2012,04,05,07,23,2.30
2012,04,05,07,24,2.30
2012,04,05,07,25,2.30
2012,04,05,07,26,2.30
2012,04,05,07,27,2.30
2012,04,05,07,28,2.30
2012,04,05,07,29,2.30
2012,04,05,07,30,2.30
2012,04,05,07,31,2.30
2012,04,05,07,32,2.30
2012,04,05,07,33,2.30
2012,04,05,07,34,2.30
2012,04,05,07,35,2.30
2012,04,05,07,36,2.40
2012,04,05,07,37,2.40
2012,04,05,07,38,2.40
2012,04,05,07,39,2.40
2012,04,05,07,40,2.40
2012,04,05,07,41,2.40
2012,04,05,07,42,2.40
2012,04,05,07,43,2.40
2012,04,05,07,44,2.50
2012,04,05,07,45,2.50
2012,04,05,07,46,2.50
2012,04,05,07,47,2.50
2012,04,05,07,48,2.60
2012,04,05,07,49,2.60
2012,04,05,07,50,2.60
2012,04,05,07,51,2.60
2012,04,05,07,52,2.60
2012,04,05,07,53,2.60
2012,04,05,07,54,2.60
2012,04,05,07,55,2.70
2012,04,05,07,56,2.70
2012,04,05,07,57,2.70
2012,04,05,07,58,2.70
2012,04,05,07,59,2.70
2012,04,05,08,00,2.80
2012,04,05,08,01,2.80
2012,04,05,08,02,2.80
2012,04,05,08,03,2.80
2012,04,05,08,04,2.80
2012,04,05,08,05,2.80
2012,04,05,08,06,2.80
2012,04,05,08,07,2.80
2012,04,05,08,08,2.80
2012,04,05,08,09,2.90
2012,04,05,08,10,2.90
2012,04,05,08,11,2.90
2012,04,05,08,12,2.90
2012,04,05,08,13,2.90
2012,04,05,08,14,2.90
2012,04,05,08,15,2.90
2012,04,05,08,16,3.00
2012,04,05,08,17,3.00
2012,04,05,08,18,3.00
2012,04,05,08,19,3.10
2012,04,05,08,20,3.10
2012,04,05,08,21,3.10
2012,04,05,08,22,3.10
2012,04,05,08,23,3.20
2012,04,05,08,24,3.20
2012,04,05,08,25,3.20
2012,04,05,08,26,3.30
2012,04,05,08,27,3.30
2012,04,05,08,28,3.30
2012,04,05,08,29,3.40
2012,04,05,08,30,3.40
2012,04,05,08,31,3.40
2012,04,05,08,32,3.40
2012,04,05,08,33,3.40
2012,04,05,08,34,3.40
2012,04,05,08,35,3.50
2012,04,05,08,36,3.50
2012,04,05,08,37,3.50
2012,04,05,08,38,3.50
2012,04,05,08,39,3.50
2012,04,05,08,40,3.50
2012,04,05,08,41,3.50
2012,04,05,08,42,3.50
2012,04,05,08,43,3.50
2012,04,05,08,44,3.60
2012,04,05,08,45,3.60
2012,04,05,08,46,3.60
2012,04,05,08,47,3.60
2012,04,05,08,48,3.60
2012,04,05,08,49,3.60
2012,04,05,08,50,3.60
2012,04,05,08,51,3.60
2012,04,05,08,52,3.60
2012,04,05,08,53,3.60
2012,04,05,08,54,3.60
2012,04,05,08,55,3.70
2012,04,05,08,56,3.70
2012,04,05,08,57,3.70
2012,04,05,08,58,3.70
2012,04,05,08,59,3.70
2012,04,05,09,00,3.70
2012,04,05,09,01,3.70
2012,04,05,09,02,3.70
2012,04,05,09,03,3.70
2012,04,05,09,04,3.70
2012,04,05,09,05,3.70
2012,04,05,09,06,3.70
2012,04,05,09,07,3.70
2012,04,05,09,08,3.70
2012,04,05,09,09,3.70
2012,04,05,09,10,3.70
2012,04,05,09,11,3.70
2012,04,05,09,12,3.70
2012,04,05,09,13,3.70
2012,04,05,09,14,3.70
2012,04,05,09,15,3.60
2012,04,05,09,16,3.60
2012,04,05,09,17,3.60
2012,04,05,09,18,3.60
2012,04,05,09,19,3.60
2012,04,05,09,20,3.60
2012,04,05,09,21,3.70
2012,04,05,09,22,3.70
2012,04,05,09,23,3.70
2012,04,05,09,24,3.70
2012,04,05,09,25,3.70
2012,04,05,09,26,3.70
2012,04,05,09,27,3.70
2012,04,05,09,28,3.70
2012,04,05,09,29,3.70
2012,04,05,09,30,3.70
2012,04,05,09,31,3.70
2012,04,05,09,32,3.70
2012,04,05,09,33,3.70
2012,04,05,09,34,3.80
2012,04,05,09,35,3.80
2012,04,05,09,36,3.80
2012,04,05,09,37,3.80
2012,04,05,09,38,3.80
2012,04,05,09,39,3.80
2012,04,05,09,40,3.90
2012,04,05,09,41,3.90
2012,04,05,09,42,3.90
2012,04,05,09,43,3.90
2012,04,05,09,44,4.00
2012,04,05,09,45,4.00
2012,04,05,09,46,4.10
2012,04,05,09,47,4.10
2012,04,05,09,48,4.10
2012,04,05,09,49,4.10
2012,04,05,09,50,4.10
2012,04,05,09,51,4.10
2012,04,05,09,52,4.10
2012,04,05,09,53,4.10
2012,04,05,09,54,4.10
2012,04,05,09,55,4.20
2012,04,05,09,56,4.20
2012,04,05,09,57,4.20
2012,04,05,09,58,4.20
2012,04,05,09,59,4.20
2012,04,05,10,00,4.30
2012,04,05,10,01,4.30
2012,04,05,10,02,4.40
2012,04,05,10,03,4.40
2012,04,05,10,04,4.40
2012,04,05,10,05,4.40
2012,04,05,10,06,4.40
2012,04,05,10,07,4.40
2012,04,05,10,08,4.40
2012,04,05,10,09,4.50
2012,04,05,10,10,4.60
2012,04,05,10,11,4.60
2012,04,05,10,12,4.70
2012,04,05,10,13,4.70
2012,04,05,10,14,4.70
2012,04,05,10,15,4.70
2012,04,05,10,16,4.70
2012,04,05,10,17,4.80
2012,04,05,10,18,4.80
2012,04,05,10,19,4.80
2012,04,05,10,20,4.90
2012,04,05,10,21,4.90
2012,04,05,10,22,5.00
2012,04,05,10,23,5.00
2012,04,05,10,24,5.10
2012,04,05,10,25,5.10
2012,04,05,10,26,5.10
2012,04,05,10,27,5.10
2012,04,05,10,28,5.20
2012,04,05,10,29,5.20
2012,04,05,10,30,5.20
2012,04,05,10,31,5.30
2012,04,05,10,32,5.30
2012,04,05,10,33,5.40
2012,04,05,10,34,5.40
2012,04,05,10,35,5.50
2012,04,05,10,36,5.50
2012,04,05,10,37,5.60
2012,04,05,10,38,5.70
2012,04,05,10,39,5.80
2012,04,05,10,40,5.80
2012,04,05,10,41,5.90
2012,04,05,10,42,5.90
2012,04,05,10,43,6.00
2012,04,05,10,44,6.00
2012,04,05,10,45,6.10
2012,04,05,10,46,6.10
2012,04,05,10,47,6.20
2012,04,05,10,48,6.20
2012,04,05,10,49,6.20
2012,04,05,10,50,6.20
2012,04,05,10,51,6.20
2012,04,05,10,52,6.30
2012,04,05,10,53,6.30
2012,04,05,10,54,6.40
2012,04,05,10,55,6.40
2012,04,05,10,56,6.50
2012,04,05,10,57,6.50
2012,04,05,10,58,6.60
2012,04,05,10,59,6.60
2012,04,05,11,00,6.60
2012,04,05,11,01,6.70
2012,04,05,11,02,6.70
2012,04,05,11,03,6.70
2012,04,05,11,04,6.80
2012,04,05,11,05,6.70
2012,04,05,11,06,6.70
2012,04,05,11,07,6.70
2012,04,05,11,08,6.70
2012,04,05,11,09,6.80
2012,04,05,11,10,6.80
2012,04,05,11,11,6.80
2012,04,05,11,12,6.80
2012,04,05,11,13,6.80
2012,04,05,11,14,6.80
2012,04,05,11,15,6.80
2012,04,05,11,16,6.80
2012,04,05,11,17,6.80
2012,04,05,11,18,6.80
2012,04,05,11,19,6.80
2012,04,05,11,20,6.80
2012,04,05,11,21,6.80
2012,04,05,11,22,6.80
2012,04,05,11,23,6.80
2012,04,05,11,24,6.80
2012,04,05,11,25,6.80
2012,04,05,11,26,6.90
2012,04,05,11,27,6.90
2012,04,05,11,28,6.90
2012,04,05,11,29,6.90
2012,04,05,11,30,6.90
2012,04,05,11,31,6.90
2012,04,05,11,32,6.90
2012,04,05,11,33,6.80
2012,04,05,11,34,6.80
2012,04,05,11,35,6.80
2012,04,05,11,36,6.80
2012,04,05,11,37,6.80
2012,04,05,11,38,6.80
2012,04,05,11,39,6.80
2012,04,05,11,40,6.80
2012,04,05,11,41,6.80
2012,04,05,11,42,6.80
2012,04,05,11,43,6.80
2012,04,05,11,44,6.70
2012,04,05,11,45,6.70
2012,04,05,11,46,6.70
2012,04,05,11,47,6.60
2012,04,05,11,48,6.50
2012,04,05,11,49,6.40
2012,04,05,11,50,6.40
2012,04,05,11,51,6.30
2012,04,05,11,52,6.30
2012,04,05,11,53,6.30
2012,04,05,11,54,6.30
2012,04,05,11,55,6.30
2012,04,05,11,56,6.30
2012,04,05,11,57,6.20
2012,04,05,11,58,6.20
2012,04,05,11,59,6.20
2012,04,05,12,00,6.10
2012,04,05,12,01,6.10
2012,04,05,12,02,6.10
2012,04,05,12,03,6.10
2012,04,05,12,04,6.00
2012,04,05,12,05,6.00
2012,04,05,12,06,6.00
2012,04,05,12,07,5.90
2012,04,05,12,08,5.90
2012,04,05,12,09,5.80
2012,04,05,12,10,5.80
2012,04,05,12,11,5.90
2012,04,05,12,12,5.90
2012,04,05,12,13,5.90
2012,04,05,12,14,5.90
2012,04,05,12,15,5.90
2012,04,05,12,16,5.90
2012,04,05,12,17,5.90
2012,04,05,12,18,5.90
2012,04,05,12,19,5.90
2012,04,05,12,20,5.90
2012,04,05,12,21,5.80
2012,04,05,12,22,5.80
2012,04,05,12,23,5.80
2012,04,05,12,24,5.80
2012,04,05,12,25,5.80
2012,04,05,12,26,5.90
2012,04,05,12,27,5.90
2012,04,05,12,28,5.90
2012,04,05,12,29,5.90
2012,04,05,12,30,5.80
2012,04,05,12,31,5.80
2012,04,05,12,32,5.80
2012,04,05,12,33,5.80
2012,04,05,12,34,5.80
2012,04,05,12,35,5.90
2012,04,05,12,36,5.90
2012,04,05,12,37,5.90
2012,04,05,12,38,6.00
2012,04,05,12,39,6.00
2012,04,05,12,40,6.00
2012,04,05,12,41,6.00
2012,04,05,12,42,6.10
2012,04,05,12,43,6.10
2012,04,05,12,44,6.20
2012,04,05,12,45,6.30
2012,04,05,12,46,6.30
2012,04,05,12,47,6.30
2012,04,05,12,48,6.40
2012,04,05,12,49,6.40
2012,04,05,12,50,6.40
2012,04,05,12,51,6.40
2012,04,05,12,52,6.40
2012,04,05,12,53,6.50
2012,04,05,12,54,6.50
2012,04,05,12,55,6.60
2012,04,05,12,56,6.50
2012,04,05,12,57,6.60
2012,04,05,12,58,6.60
2012,04,05,12,59,6.50
2012,04,05,13,00,6.40
2012,04,05,13,01,6.40
2012,04,05,13,02,6.30
2012,04,05,13,03,6.30
2012,04,05,13,04,6.30
2012,04,05,13,05,6.30
2012,04,05,13,06,6.40
2012,04,05,13,07,6.40
2012,04,05,13,08,6.50
2012,04,05,13,09,6.50
2012,04,05,13,10,6.50
2012,04,05,13,11,6.60
2012,04,05,13,12,6.70
2012,04,05,13,13,6.70
2012,04,05,13,14,6.90
2012,04,05,13,15,7.10
2012,04,05,13,16,7.10
2012,04,05,13,17,7.20
2012,04,05,13,18,7.20
2012,04,05,13,19,7.20
2012,04,05,13,20,7.20
2012,04,05,13,21,7.40
2012,04,05,13,22,7.50
2012,04,05,13,23,7.60
2012,04,05,13,24,7.60
2012,04,05,13,25,7.60
2012,04,05,13,26,7.70
2012,04,05,13,27,7.70
2012,04,05,13,28,7.80
2012,04,05,13,29,8.00
2012,04,05,13,30,8.10
2012,04,05,13,31,8.20
2012,04,05,13,32,8.30
2012,04,05,13,33,8.30
2012,04,05,13,34,8.40
2012,04,05,13,35,8.40
2012,04,05,13,36,8.30
2012,04,05,13,37,8.20
2012,04,05,13,38,8.20
2012,04,05,13,39,8.20
2012,04,05,13,40,8.20
2012,04,05,13,41,8.30
2012,04,05,13,42,8.30
2012,04,05,13,43,8.30
2012,04,05,13,44,8.10
2012,04,05,13,45,8.10
2012,04,05,13,46,8.10
2012,04,05,13,47,8.20
2012,04,05,13,48,8.20
2012,04,05,13,49,8.20
2012,04,05,13,50,8.30
2012,04,05,13,51,8.40
2012,04,05,13,52,8.40
2012,04,05,13,53,8.40
2012,04,05,13,54,8.50
2012,04,05,13,55,8.60
2012,04,05,13,56,8.70
2012,04,05,13,57,8.70
2012,04,05,13,58,8.70
2012,04,05,13,59,8.70
2012,04,05,14,00,8.80
2012,04,05,14,01,9.20
2012,04,05,14,02,9.20
2012,04,05,14,03,9.30
2012,04,05,14,04,9.30
2012,04,05,14,05,9.40
2012,04,05,14,06,9.40
2012,04,05,14,07,9.30
2012,04,05,14,08,9.30
2012,04,05,14,09,9.30
2012,04,05,14,10,9.20
2012,04,05,14,11,9.10
2012,04,05,14,12,9.00
2012,04,05,14,13,9.00
2012,04,05,14,14,8.90
2012,04,05,14,15,8.90
2012,04,05,14,16,8.90
2012,04,05,14,17,8.90
2012,04,05,14,18,8.90
2012,04,05,14,19,8.80
2012,04,05,14,20,8.80
2012,04,05,14,21,8.70
2012,04,05,14,22,8.70
2012,04,05,14,23,8.70
2012,04,05,14,24,8.70
2012,04,05,14,25,8.60
2012,04,05,14,26,8.50
2012,04,05,14,27,8.40
2012,04,05,14,28,8.40
2012,04,05,14,29,8.40
2012,04,05,14,30,8.40
2012,04,05,14,31,8.40
2012,04,05,14,32,8.40
2012,04,05,14,33,8.40
2012,04,05,14,34,8.50
2012,04,05,14,35,8.50
2012,04,05,14,36,8.50
2012,04,05,14,37,8.40
2012,04,05,14,38,8.40
2012,04,05,14,39,8.50
2012,04,05,14,40,8.60
2012,04,05,14,41,8.70
2012,04,05,14,42,8.80
2012,04,05,14,43,9.00
2012,04,05,14,44,9.10
2012,04,05,14,45,9.20
2012,04,05,14,46,9.20
2012,04,05,14,47,9.30
2012,04,05,14,48,9.30
2012,04,05,14,49,9.20
2012,04,05,14,50,9.20
2012,04,05,14,51,9.00
2012,04,05,14,52,8.90
2012,04,05,14,53,8.80
2012,04,05,14,54,8.70
2012,04,05,14,55,8.60
2012,04,05,14,56,8.60
2012,04,05,14,57,8.60
2012,04,05,14,58,8.60
2012,04,05,14,59,8.50
2012,04,05,15,00,8.40
2012,04,05,15,01,8.30
2012,04,05,15,02,8.20
2012,04,05,15,03,8.20
2012,04,05,15,04,8.20
2012,04,05,15,05,8.20
2012,04,05,15,06,8.20
2012,04,05,15,07,8.20
2012,04,05,15,08,8.30
2012,04,05,15,09,8.30
2012,04,05,15,10,8.30
2012,04,05,15,11,8.30
2012,04,05,15,12,8.30
2012,04,05,15,13,8.30
2012,04,05,15,14,8.30
2012,04,05,15,15,8.30
2012,04,05,15,16,8.30
2012,04,05,15,17,8.30
2012,04,05,15,18,8.30
2012,04,05,15,19,8.30
2012,04,05,15,20,8.30
2012,04,05,15,21,8.30
2012,04,05,15,22,8.30
2012,04,05,15,23,8.30
2012,04,05,15,24,8.40
2012,04,05,15,25,8.40
2012,04,05,15,26,8.40
2012,04,05,15,27,8.40
2012,04,05,15,28,8.40
2012,04,05,15,29,8.40
2012,04,05,15,30,8.40
2012,04,05,15,31,8.50
2012,04,05,15,32,8.50
2012,04,05,15,33,8.60
2012,04,05,15,34,8.70
2012,04,05,15,35,8.80
2012,04,05,15,36,8.90
2012,04,05,15,37,9.00
2012,04,05,15,38,9.10
2012,04,05,15,39,9.20
2012,04,05,15,40,9.20
2012,04,05,15,41,9.20
2012,04,05,15,42,9.20
2012,04,05,15,43,9.20
2012,04,05,15,44,9.10
2012,04,05,15,45,9.10
2012,04,05,15,46,9.00
2012,04,05,15,47,9.00
2012,04,05,15,48,8.90
2012,04,05,15,49,8.90
2012,04,05,15,50,8.80
2012,04,05,15,51,8.80
2012,04,05,15,52,8.80
2012,04,05,15,53,8.80
2012,04,05,15,54,8.80
2012,04,05,15,55,8.70
2012,04,05,15,56,8.70
2012,04,05,15,57,8.70
2012,04,05,15,58,8.60
2012,04,05,15,59,8.60
2012,04,05,16,00,8.60
2012,04,05,16,01,8.60
2012,04,05,16,02,8.60
2012,04,05,16,03,8.50
2012,04,05,16,04,8.50
2012,04,05,16,05,8.50
2012,04,05,16,06,8.50
2012,04,05,16,07,8.50
2012,04,05,16,08,8.50
2012,04,05,16,09,8.40
2012,04,05,16,10,8.30
2012,04,05,16,11,8.30
2012,04,05,16,12,8.30
2012,04,05,16,13,8.30
2012,04,05,16,14,8.30
2012,04,05,16,15,8.30
2012,04,05,16,16,8.40
2012,04,05,16,17,8.40
2012,04,05,16,18,8.40
2012,04,05,16,19,8.50
2012,04,05,16,20,8.50
2012,04,05,16,21,8.60
2012,04,05,16,22,8.60
2012,04,05,16,23,8.60
2012,04,05,16,24,8.60
2012,04,05,16,25,8.50
2012,04,05,16,26,8.40
2012,04,05,16,27,8.40
2012,04,05,16,28,8.30
2012,04,05,16,29,8.20
2012,04,05,16,30,8.20
2012,04,05,16,31,8.10
2012,04,05,16,32,8.10
2012,04,05,16,33,8.10
2012,04,05,16,34,8.10
2012,04,05,16,35,8.10
2012,04,05,16,36,8.00
2012,04,05,16,37,8.00
2012,04,05,16,38,8.00
2012,04,05,16,39,8.00
2012,04,05,16,40,8.00
2012,04,05,16,41,8.10
2012,04,05,16,42,8.10
2012,04,05,16,43,8.10
2012,04,05,16,44,8.20
2012,04,05,16,45,8.30
2012,04,05,16,46,8.40
2012,04,05,16,47,8.50
2012,04,05,16,48,8.60
2012,04,05,16,49,8.70
2012,04,05,16,50,8.80
2012,04,05,16,51,9.00
2012,04,05,16,52,9.20
2012,04,05,16,53,9.20
2012,04,05,16,54,9.20
2012,04,05,16,55,9.30
2012,04,05,16,56,9.30
2012,04,05,16,57,9.50
2012,04,05,16,58,9.60
2012,04,05,16,59,9.70
2012,04,05,17,00,9.80
2012,04,05,17,01,9.90
2012,04,05,17,02,9.90
2012,04,05,17,03,9.80
2012,04,05,17,04,9.80
2012,04,05,17,05,9.80
2012,04,05,17,06,9.70
2012,04,05,17,07,9.70
2012,04,05,17,08,9.70
2012,04,05,17,09,9.70
2012,04,05,17,10,9.70
2012,04,05,17,11,9.70
2012,04,05,17,12,9.70
2012,04,05,17,13,9.60
2012,04,05,17,14,9.60
2012,04,05,17,15,9.60
2012,04,05,17,16,9.70
2012,04,05,17,17,9.70
2012,04,05,17,18,9.80
2012,04,05,17,19,9.80
2012,04,05,17,20,9.90
2012,04,05,17,21,9.90
2012,04,05,17,22,10.00
2012,04,05,17,23,9.90
2012,04,05,17,24,9.90
2012,04,05,17,25,9.80
2012,04,05,17,26,9.80
2012,04,05,17,27,9.70
2012,04,05,17,28,9.80
2012,04,05,17,29,9.80
2012,04,05,17,30,9.90
2012,04,05,17,31,10.00
2012,04,05,17,32,10.10
2012,04,05,17,33,10.10
2012,04,05,17,34,10.20
2012,04,05,17,35,10.30
2012,04,05,17,36,10.30
2012,04,05,17,37,10.30
2012,04,05,17,38,10.30
2012,04,05,17,39,10.20
2012,04,05,17,40,10.00
2012,04,05,17,41,9.90
2012,04,05,17,42,9.90
2012,04,05,17,43,9.80
2012,04,05,17,44,9.80
2012,04,05,17,45,9.70
2012,04,05,17,46,9.70
2012,04,05,17,47,9.70
2012,04,05,17,48,9.70
2012,04,05,17,49,9.60
2012,04,05,17,50,9.60
2012,04,05,17,51,9.50
2012,04,05,17,52,9.50
2012,04,05,17,53,9.40
2012,04,05,17,54,9.30
2012,04,05,17,55,9.30
2012,04,05,17,56,9.20
2012,04,05,17,57,9.20
2012,04,05,17,58,9.10
2012,04,05,17,59,9.00
2012,04,05,18,00,9.00
2012,04,05,18,01,8.90
2012,04,05,18,02,8.80
2012,04,05,18,03,8.80
2012,04,05,18,04,8.70
2012,04,05,18,05,8.60
2012,04,05,18,06,8.60